Weather History for Billings, MT

Change the Weather History Date:

Wednesday, January 9, 2013

  Actual Average Record
Temperature  
Mean Temperature 44 °F 27 °F  
Max Temperature 54 °F 36 °F 67 °F (1953)
Min Temperature 33 °F 17 °F -18 °F (1973)
Degree Days  
Heating Degree Days 21 38  
Month to date heating degree days 296 349  
Since 1 July heating degree days 2837 3170  
Cooling Degree Days 0 0  
Month to date cooling degree days 0 0  
Year to date cooling degree days 0 0  
Moisture  
Dew Point 21 °F    
Average Humidity 38    
Maximum Humidity 51    
Minimum Humidity 17    
Precipitation  
Precipitation 0.00 in 0.02 in 0.42 in (1971)
Month to date precipitation 0.01 0.14  
Year to date precipitation 0.01 0.14  
Snow  
Snow 0.00 in 0.30 in 5.70 in (1997)
Month to date snowfall 0.1 2.5  
Since 1 July snowfall 16.4 22.4  
Snow Depth 0.00 in    
Sea Level Pressure  
Sea Level Pressure 29.87 in    
Wind  
Wind Speed 17 mph (WSW)    
Max Wind Speed 30 mph    
Max Gust Speed 38 mph    
Visibility 10 miles    
Events      
T = Trace of Precipitation, MM = Missing Value Source: NWS Daily Summary

Daily Weather History Graph

Daily Weather History Graph

Search for Another Location

Airport:

Trip Planner

Search our weather history database for the weather conditions in past years. The results will help you decide how hot, cold, wet, or windy it might be!

Date:

Astronomy

Jan. 09, 2013 Rise Set
Actual Time 7:54 AM MST 4:49 PM MST
Civil Twilight 7:20 AM MST 5:22 PM MST
Nautical Twilight 6:43 AM MST 6:00 PM MST
Astronomical Twilight 6:07 AM MST 6:36 PM MST
Moon 5:36 AM MST (1/9) 2:53 PM MST (1/9)
Length of Visible Light 10h 02m
Length of Day
8h 55m
Waning Crescent, 6% of the Moon is Illuminated
Jan 9
Waning Crescent
Jan 11
New
Jan 18
First Quarter
Jan 26
Full
Feb 3
Last Quarter

Hourly Weather History & Observations

Time (MST) Temp. Windchill Dew Point Humidity Pressure Visibility Wind Dir Wind Speed Gust Speed Precip Events Conditions
12:53 AM 35.6 °F 27.5 °F 19.4 °F 52% 29.95 in 10.0 mi WSW 11.5 mph - N/A   Clear
1:53 AM 37.9 °F 28.2 °F 19.9 °F 48% 29.98 in 10.0 mi WSW 18.4 mph - N/A   Partly Cloudy
2:53 AM 39.0 °F 28.5 °F 21.0 °F 49% 29.99 in 10.0 mi WSW 23.0 mph 32.2 mph N/A   Partly Cloudy
3:53 AM 39.9 °F 29.0 °F 21.0 °F 47% 29.98 in 10.0 mi WSW 26.5 mph 34.5 mph N/A   Partly Cloudy
4:53 AM 41.0 °F 31.4 °F 19.4 °F 42% 29.93 in 10.0 mi WSW 21.9 mph 27.6 mph N/A   Clear
5:53 AM 42.1 °F 31.5 °F 19.0 °F 40% 29.94 in 10.0 mi WSW 28.8 mph 36.8 mph N/A   Clear
6:53 AM 43.0 °F 32.9 °F 21.0 °F 42% 29.96 in 10.0 mi WSW 27.6 mph 38.0 mph N/A   Clear
7:53 AM 43.0 °F 34.2 °F 21.0 °F 42% 29.98 in 10.0 mi WSW 20.7 mph - N/A   Scattered Clouds
8:53 AM 44.1 °F 35.9 °F 21.0 °F 40% 30.00 in 10.0 mi WSW 19.6 mph - N/A   Mostly Cloudy
9:53 AM 46.0 °F 39.0 °F 21.9 °F 39% 29.97 in 10.0 mi WSW 17.3 mph 23.0 mph N/A   Mostly Cloudy
10:53 AM 51.1 °F - 21.9 °F 32% 29.96 in 10.0 mi SSW 12.7 mph - N/A   Mostly Cloudy
11:53 AM 53.1 °F - 21.0 °F 29% 29.92 in 10.0 mi SW 16.1 mph - N/A   Mostly Cloudy
12:53 PM 53.1 °F - 21.0 °F 29% 29.86 in 10.0 mi WSW 17.3 mph 28.8 mph N/A   Scattered Clouds
1:53 PM 52.0 °F - 19.9 °F 28% 29.84 in 10.0 mi WSW 13.8 mph - N/A   Scattered Clouds
2:53 PM 50.0 °F - 21.0 °F 32% 29.83 in 10.0 mi SW 8.1 mph - N/A   Scattered Clouds
3:53 PM 48.0 °F - 19.9 °F 33% 29.83 in 10.0 mi WSW 10.4 mph - N/A   Mostly Cloudy
4:53 PM 45.0 °F 38.5 °F 19.9 °F 37% 29.81 in 10.0 mi West 13.8 mph - N/A   Mostly Cloudy
5:53 PM 45.0 °F 38.5 °F 21.0 °F 39% 29.80 in 10.0 mi West 13.8 mph - N/A   Scattered Clouds
6:53 PM 45.0 °F 37.4 °F 23.0 °F 42% 29.79 in 10.0 mi WSW 18.4 mph - N/A   Scattered Clouds
7:53 PM 42.1 °F 35.2 °F 24.1 °F 49% 29.76 in 10.0 mi WSW 12.7 mph - N/A   Partly Cloudy
8:53 PM 43.0 °F 36.0 °F 25.0 °F 49% 29.74 in 10.0 mi West 13.8 mph - N/A   Clear
9:53 PM 43.0 °F 34.8 °F 24.1 °F 47% 29.71 in 10.0 mi WSW 18.4 mph - N/A   Clear
10:53 PM 42.1 °F 33.3 °F 24.1 °F 49% 29.69 in 10.0 mi WSW 19.6 mph - N/A   Clear
11:53 PM 41.0 °F 34.3 °F 23.0 °F 49% 29.68 in 10.0 mi SW 11.5 mph - N/A   Clear